Location: *
(42.0175°N, 9.4056°E)
Time: 12:55:41
(UTC+00:00)

Cosmos 1515 - Pass Details

Date: 25 August 2019
Orbit: 507 x 517 km, 82.5° (Epoch: 22 October)

Event Time Altitude Azimuth Distance (km) Brightness Sun altitude
Rises 19:20:23 0° 353° (N) 2,635 7.8 -13.3°
Reaches altitude 10° 19:22:32 10° 355° (N) 1,745 6.8 -13.6°
Maximum altitude 19:26:21 76° 81° (E) 535 3.6 -14.3°
Enters shadow 19:29:18 16° 167° (SSE) 1,390 5.5 -14.8°
